2023/05/10 00:00:00,15.1, 7.5
2023/05/10 00:10:00,14.5, 7.3
2023/05/10 00:20:00,15.0, 7.1
2023/05/10 00:30:00,15.4, 7.0
2023/05/10 00:40:00,15.5, 6.9
2023/05/10 00:50:00,15.2, 6.6
2023/05/10 01:00:00,13.3, 6.6
2023/05/10 01:10:00,13.5, 6.7
2023/05/10 01:20:00,14.4, 6.4
2023/05/10 01:30:00,15.1, 6.2
2023/05/10 01:40:00,15.4, 6.4
2023/05/10 01:50:00,15.6, 6.3
2023/05/10 02:00:00,15.3, 6.3
2023/05/10 02:10:00,14.8, 6.0
2023/05/10 02:20:00,15.9, 6.1
2023/05/10 02:30:00,16.0, 6.1
2023/05/10 02:40:00,14.8, 6.0
2023/05/10 02:50:00,15.2, 5.8
2023/05/10 03:00:00,15.7, 5.9
2023/05/10 03:10:00,15.2, 6.0
2023/05/10 03:20:00,15.0, 5.4
2023/05/10 03:30:00,14.6, 5.4
2023/05/10 03:40:00,16.3, 5.5
2023/05/10 03:50:00,16.0, 5.4
2023/05/10 04:00:00,14.8, 5.3
2023/05/10 04:10:00,14.9, 5.2
2023/05/10 04:20:00,15.4, 5.2
2023/05/10 04:30:00,15.0, 5.1
2023/05/10 04:40:00,16.1, 5.2
2023/05/10 04:50:00,15.7, 5.1
2023/05/10 05:00:00,15.4, 5.1
2023/05/10 05:10:00,15.3, 4.8
2023/05/10 05:20:00,15.1, 4.7
2023/05/10 05:30:00,14.5, 4.8
2023/05/10 05:40:00,15.4, 5.1
2023/05/10 05:50:00,14.9, 5.1
2023/05/10 06:00:00,15.2, 5.1
2023/05/10 06:10:00,15.4, 5.1
2023/05/10 06:20:00,15.8, 5.4
2023/05/10 06:30:00,15.2, 5.8
2023/05/10 06:40:00,15.8, 6.4
2023/05/10 06:50:00,15.7, 6.6
2023/05/10 07:00:00,14.6, 7.8
2023/05/10 07:10:00,14.6, 7.4
2023/05/10 07:20:00,14.5, 8.9
2023/05/10 07:30:00,14.1, 8.8
2023/05/10 07:40:00,14.4,10.4
2023/05/10 07:50:00,14.5, 9.8
2023/05/10 08:00:00,13.9,10.4
2023/05/10 08:10:00,13.8,11.1
2023/05/10 08:20:00, 0.0,12.0
2023/05/10 08:30:00,---,12.9
2023/05/10 08:40:00,---,13.8
2023/05/10 08:50:00, 0.0,14.2
2023/05/10 09:00:00, 0.0,14.8
2023/05/10 09:10:00, 0.0,15.9
2023/05/10 09:20:00, 0.0,16.7
2023/05/10 09:30:00, 5.7,17.3
2023/05/10 09:40:00, 4.3,18.2
2023/05/10 09:50:00, 2.8,19.5
2023/05/10 10:00:00, 2.0,19.9
2023/05/10 10:10:00, 1.5,22.0
2023/05/10 10:20:00, 1.5,22.1
2023/05/10 10:30:00, 1.4,22.7
2023/05/10 10:40:00, 1.0,23.5
2023/05/10 10:50:00, 0.9,23.2
2023/05/10 11:00:00, 1.2,24.5
2023/05/10 11:10:00, 1.0,23.4
2023/05/10 11:20:00, 1.1,24.0
2023/05/10 11:30:00, 1.3,24.7
2023/05/10 11:40:00, 1.0,24.7
2023/05/10 11:50:00, 1.0,26.1
2023/05/10 12:00:00, 1.1,26.1
2023/05/10 12:10:00, 0.9,25.8
2023/05/10 12:20:00, 1.0,25.7
2023/05/10 12:30:00, 1.1,24.8
2023/05/10 12:40:00, 0.9,25.4
2023/05/10 12:50:00, 0.9,26.5
2023/05/10 13:00:00, 0.9,25.6
2023/05/10 13:10:00, 0.9,26.1
2023/05/10 13:20:00, 1.5,25.8
2023/05/10 13:30:00, 1.5,25.7
2023/05/10 13:40:00, 1.1,25.3
2023/05/10 13:50:00, 1.1,25.3
2023/05/10 14:00:00, 1.2,25.3
2023/05/10 14:10:00, 1.5,25.1
2023/05/10 14:20:00, 1.5,24.9
2023/05/10 14:30:00, 2.7,24.8
2023/05/10 14:40:00, 3.1,24.0
2023/05/10 14:50:00, 6.4,24.2
2023/05/10 15:00:00, 8.1,24.3
2023/05/10 15:10:00, 8.8,23.5
2023/05/10 15:20:00, 8.5,23.2
2023/05/10 15:30:00, 8.5,23.0
2023/05/10 15:40:00,11.1,23.0
2023/05/10 15:50:00,11.6,22.4
2023/05/10 16:00:00,11.2,21.9
2023/05/10 16:10:00, 7.1,20.4
2023/05/10 16:20:00,10.8,21.1
2023/05/10 16:30:00,10.6,21.2
2023/05/10 16:40:00,13.1,20.8
2023/05/10 16:50:00,12.4,20.5
2023/05/10 17:00:00,11.4,19.2
2023/05/10 17:10:00, 9.3,18.9
2023/05/10 17:20:00,13.2,19.8
2023/05/10 17:30:00,13.1,18.9
2023/05/10 17:40:00,14.4,18.7
2023/05/10 17:50:00,12.6,17.6
2023/05/10 18:00:00,13.4,17.0
2023/05/10 18:10:00,14.3,16.8
2023/05/10 18:20:00,14.7,16.5
2023/05/10 18:30:00,15.0,16.2
2023/05/10 18:40:00,15.2,15.8
2023/05/10 18:50:00,15.3,15.2
2023/05/10 19:00:00,15.5,15.0
2023/05/10 19:10:00,15.8,14.6
2023/05/10 19:20:00,16.1,14.1
2023/05/10 19:30:00,16.1,13.5
2023/05/10 19:40:00,16.3,13.4
2023/05/10 19:50:00,16.5,13.3
2023/05/10 20:00:00,16.4,13.1
2023/05/10 20:10:00,16.7,12.8
2023/05/10 20:20:00,16.7,12.2
2023/05/10 20:30:00,16.8,12.1
2023/05/10 20:40:00,16.7,11.9
2023/05/10 20:50:00,17.0,12.0
2023/05/10 21:00:00,17.0,11.8
2023/05/10 21:10:00,17.0,11.5
2023/05/10 21:20:00,17.2,11.6
2023/05/10 21:30:00,17.2,11.6
2023/05/10 21:40:00,17.4,11.6
2023/05/10 21:50:00,17.3,11.2
2023/05/10 22:00:00,17.5,11.2
2023/05/10 22:10:00,17.4,11.1
2023/05/10 22:20:00,17.2,11.0
2023/05/10 22:30:00,17.2,10.9
2023/05/10 22:40:00,17.3,10.6
2023/05/10 22:50:00,17.4,10.7
2023/05/10 23:00:00,17.5,10.4
2023/05/10 23:10:00,17.5,10.3
2023/05/10 23:20:00,16.8, 9.9
2023/05/10 23:30:00,17.0,10.3
2023/05/10 23:40:00,16.7, 9.9
2023/05/10 23:50:00,17.0, 9.8
